Regional Weather Roundup
Issued by NWS Charleston, WV

Home | Current Version | Previous Version | Graphics & Text | Print | Product List | Glossary On
Versions: 1 2 3 4 5 6 7 8 9 10 11 12 13 14 15 16 17 18 19 20 21 22 23 24 25 26 27 28 29 30 31 32 33 34 35 36 37 38 39 40 41 42 43 44 45 46 47 48 49 50
739
ASUS41 KRLX 291210
RWRRLX
West Virginia Regional Weather Roundup
National Weather Service Charleston WV
800 AM EDT WED MAR 29 2017

Note: "fair" indicates few or no clouds below 12,000 feet with no
significant weather and/or obstructions to visibility.

WVZ003-291300-
Northern Panhandle of West Virginia

CITY           SKY/WX    TMP DP  RH WIND       PRES   REMARKS
WHEELING       CLOUDY    43  38  82 NE7       30.17R
$$

WVZ009-291300-
Northwest West Virginia

CITY           SKY/WX    TMP DP  RH WIND       PRES   REMARKS
PARKERSBURG    CLOUDY    47  40  76 N5        30.19R
$$

WVZ006-291300-
Western West Virginia

CITY           SKY/WX    TMP DP  RH WIND       PRES   REMARKS
HUNTINGTON     CLOUDY    50  44  80 N8        30.14R
$$

WVZ015-291300-
West Central West Virginia

CITY           SKY/WX    TMP DP  RH WIND       PRES   REMARKS
CHARLESTON     CLOUDY    50  43  77 N8        30.13R
$$

WVZ022-031-291300-
North Central West Virginia

CITY           SKY/WX    TMP DP  RH WIND       PRES   REMARKS
CLARKSBURG     CLOUDY    46  43  89 NE6       30.15R
MORGANTOWN     CLOUDY    46  41  82 N3        30.16R
$$

WVZ025-035-042-045-291300-
Southern West Virginia

CITY           SKY/WX    TMP DP  RH WIND       PRES   REMARKS
BECKLEY        CLOUDY    48  46  93 N5        30.10S
LOGAN          CLOUDY    52  46  82 CALM      30.11R
BLUEFIELD      NOT AVBL
LEWISBURG      CLOUDY    45  42  91 CALM      30.10R
$$

WVZ047-291300-
Northern Mountains of West Virginia

CITY           SKY/WX    TMP DP  RH WIND       PRES   REMARKS
ELKINS         CLOUDY    46  42  86 NW5       30.12R
$$

WVZ052-291300-
Eastern Panhandle of West Virginia

CITY           SKY/WX    TMP DP  RH WIND       PRES   REMARKS
MARTINSBURG    CLOUDY    52  42  69 N14G24    30.11R
PETERSBURG     CLOUDY    53  45  73 N5        30.13R
$$




USA.gov is the U.S. government's official web portal to all federal, state and local government web resources and services.